Dewpoint
54 52 52 52 52 51 50 51 52 52 52 50 49 49 48 48 48 48 47 47 46 45
53 52 50 51 50 50 48 52 52 52 51 50 49 48 48 48 47 46 46 47 46 45
52 52 51 51 51 51 51 50 52 51 51 50 49 49 48 48 47 46 46 45 44 43
51 50 51 51 51 51 51 51 51 50 50 49 49 49 48 47 47 45 45 44 41 41
50 50 50 50 50 50 50 50 49 48 47 47 47 47 47 47 45 44 43 43 41 39
50 50 49 49 49 49 48 47 47 46 45 46 46 45 45 46 46 44 42 41 39 38
50 49 49 48 47 46 44 43 43 44 44 44 44 44 44 43 44 43 41 39 37 37
50 47 46 44 43 43 44 44 44 43 43 44 43 40 41 43 42 40 38 38 37 35
47 45 43 43 44 44 44 43 43 44 44 42 37 36 37 40 40 39 37 36 34 32
43 42 43 44 43 42 42 41 41 40 41 40 35 35 35 38 38 37 36 35 34 31
43 43 43 41 40 39 38 36 36 36 37 37 34 34 35 37 37 35 34 34 34 33
41 40 38 36 35 35 34 34 34 35 35 35 34 34 34 35 34 32 31 30 30 32
36 36 35 35 34 34 34 33 34 33 34 34 33 34 35 34 32 31 30 29 26 26
35 35 35 34 34 33 33 33 32 32 33 33 32 32 33 33 33 31 30 28 27 23
Wind_Speed
14 8 10 15 14 15 15 16 18 15 12 7 9 7 6 4 6 7 4 5 5 8
9 10 10 12 5 3 4 14 15 13 10 9 8 8 9 8 7 6 6 6 3 5
10 8 5 8 9 8 9 6 14 12 11 11 10 9 8 7 6 4 5 5 5 3
11 11 9 8 8 9 7 9 9 11 11 8 9 10 9 8 8 11 8 7 3 4
7 6 8 8 8 7 6 5 7 7 7 8 10 10 11 12 10 11 8 9 6 4
8 8 8 8 6 7 5 7 6 5 5 6 7 6 7 8 8 5 3 1 1 2
11 9 7 6 5 4 3 2 3 5 5 7 6 6 7 6 5 3 6 6 4 3
9 6 6 5 3 3 5 5 8 8 7 5 4 8 8 3 8 9 9 5 3 9
9 5 6 4 2 3 3 5 8 12 13 13 10 10 13 11 5 8 9 6 7 6
7 5 7 4 5 8 8 9 8 8 9 10 10 13 16 12 13 13 9 5 6 6
7 8 10 9 8 8 7 6 5 5 5 8 9 13 14 14 13 14 13 12 10 9
6 8 8 8 7 5 5 5 5 5 6 7 8 11 9 11 12 12 11 11 11 8
8 9 9 8 7 4 4 5 7 7 7 8 9 10 9 10 10 9 9 9 9 10
9 9 9 8 5 6 7 8 7 8 8 9 9 9 9 11 7 8 8 7 8 7
Wind_Direction
164 180 176 175 201 178 184 187 168 186 191 199 172 184 192 229 211 207 197 243 275 300
189 195 197 175 120 171 119 126 157 177 187 190 186 195 195 224 215 192 218 237 221 276
179 195 210 149 174 220 168 196 160 183 195 196 195 196 208 228 230 206 239 222 241 260
186 189 186 186 197 208 188 174 188 193 200 206 219 202 207 220 257 194 222 222 219 241
184 208 186 204 204 179 186 186 201 212 212 223 230 220 208 217 228 224 220 242 196 219
193 197 207 201 199 161 215 216 190 226 253 251 248 252 240 226 231 209 248 305 131 219
185 203 203 177 158 184 220 280 236 225 232 263 268 275 256 251 208 174 96 62 5 2
160 136 102 87 87 46 46 355 357 347 344 332 315 35 26 346 96 109 113 105 25 71
109 134 119 122 109 66 41 359 14 22 25 52 59 50 61 40 111 114 126 142 104 82
138 143 128 125 83 61 52 44 29 21 30 44 52 49 62 60 81 88 83 107 147 127
94 93 85 82 77 61 51 47 46 32 27 65 60 62 70 76 80 83 73 72 66 93
96 111 112 115 109 87 105 93 75 80 81 103 102 92 84 96 94 94 87 75 55 76
116 123 121 124 126 125 130 123 112 103 100 113 104 102 82 112 112 113 106 90 83 71
127 130 134 130 122 130 126 117 106 104 102 108 106 98 79 62 108 134 132 128 110 93